Location: *
(51.0333°S, 178.4667°E)
Time: 03:40:58
(UTC+00:00)

Cosmos 1371 Rocket - Pass Details

Date: 15 November 2019
Orbit: 755 x 789 km, 74.0° (Epoch: 07 December)

Event Time Altitude Azimuth Distance (km) Brightness Sun altitude
Exits shadow 08:47:17 - 360° (N) 2,964 6.6 -9.8°
Reaches altitude 10° 08:49:03 10° 5° (N) 2,306 6.0 -10.0°
Maximum altitude 08:54:00 44° 75° (ENE) 1,074 4.4 -10.5°
Drops below altitude 10° 08:59:02 10° 145° (SE) 2,354 6.7 -11.0°
Sets 09:01:32 0° 151° (SSE) 3,295 7.6 -11.3°
